Home   Weather   London   Past weeks
Flag for United Kingdom

Past Weather in London, England, United Kingdom — Yesterday and Last 2 Weeks

Now
50 °F

Mostly cloudy.


Feels Like: 46 °F
Forecast: 60 / 44 °F
Wind: 9 mph from Southwest

Location: Northolt

Current Time: Mar 22, 2019 at 12:41:12 pm

Latest Report: Mar 22, 2019 at 11:50 am


Visibility: N/A

Pressure: 30.36 "Hg

Humidity: 82%

Dew Point: 45 °F

Location of LondonLocation

Past Weather in London — Graph

°F

London Temperature Yesterday

Maximum temperature yesterday: 57 °F (at 12:50 pm)
Minimum temperature yesterday: 48 °F (at 3:50 am)
Average temperature yesterday: 52 °F

High & Low Weather Summary for the Past Weeks

 TemperatureHumidityPressure
High57 °F (Mar 14, 12:50 pm)100% (Mar 12, 3:50 pm)30.54 "Hg (Mar 12, 3:50 pm)
Low36 °F (Mar 10, 6:43 pm)37% (Mar 10, 2:50 pm)29.27 "Hg (Mar 7, 10:50 am)
Average48 °F77%29.94 "Hg
* Reported Mar 7 10:50 am — Mar 22 10:50 am, London. Weather by CustomWeather, © 2019

Note: Actual official high and low records may vary slightly from our data, if they occured in-between our weather recording intervals... More about our weather records

Advertising

London Weather History for the Previous 24 Hours

Scroll right to see more
 ConditionsComfort  
Time TempWeatherWind HumidityBarometerVisibility
10:50 am
Fri, Mar 22
50 °FMostly cloudy.8 mph82%30.39 "HgN/A
9:50 am48 °FOvercast.9 mph87%30.39 "HgN/A
8:50 am48 °FOvercast.10 mph82%30.39 "HgN/A
7:50 am48 °FOvercast.10 mph82%30.39 "HgN/A
6:50 am48 °FOvercast.8 mph82%30.39 "HgN/A
5:50 am48 °FOvercast.7 mph82%30.39 "HgN/A
4:50 am48 °FOvercast.9 mph87%30.39 "HgN/A
3:50 am50 °FOvercast.9 mph82%30.39 "HgN/A
2:50 am50 °FOvercast.9 mph82%30.39 "HgN/A
1:50 am52 °FOvercast.6 mph77%30.42 "HgN/A
12:50 am52 °FOvercast.5 mph82%30.42 "HgN/A
11:50 pm
Thu, Mar 21
52 °FOvercast.5 mph82%30.42 "HgN/A
10:50 pm52 °FOvercast.1 mph88%30.45 "HgN/A
9:50 pm52 °FOvercast.1 mph82%30.45 "HgN/A
8:50 pm52 °FOvercast.1 mph82%30.48 "HgN/A
7:50 pm54 °FOvercast.6 mph82%30.48 "HgN/A
6:50 pm54 °FOvercast.5 mph82%30.48 "HgN/A
5:50 pm55 °FOvercast.5 mph77%30.48 "HgN/A
4:50 pm55 °FOvercast.3 mph77%30.48 "HgN/A
3:50 pm57 °FPartly sunny.6 mph72%30.45 "HgN/A
2:50 pm57 °FBroken clouds.7 mph72%30.48 "HgN/A
1:50 pm57 °FBroken clouds.7 mph72%30.51 "HgN/A
12:50 pm57 °FOvercast.5 mph72%30.51 "HgN/A
Weather by CustomWeather, © 2019

See weather overview